Location: Unspecified
(0.0000°N, 0.0000°E)
Time: 11:54:09
(UTC+00:00)

N. Korean satellite - Pass Details

Date: 16 June 2021
Orbit: 450 x 500 km, 97.2° (Epoch: 18 June)

Event Time Altitude Azimuth Distance (km) Brightness Sun altitude
Rises 04:56:00 0° 11° (N) 2,547 10.7 -14.8°
Reaches altitude 10° 04:58:03 10° 11° (N) 1,676 9.8 -14.4°
Maximum altitude 05:01:40 90° 304° (NW) 499 6.5 -13.5°
Drops below altitude 10° 05:05:20 10° 191° (S) 1,700 9.0 -12.7°
Enters shadow 05:06:17 - 191° (S) 2,107 9.5 -12.5°
